Lid_Strength_Index
1 1 1 1 1 0 1 1 0 -0 -0 -0 0 0 1 1 2 4 7 4 3 0 0 4 4 5 6 7 6 7 11 13 11 12 10 9 9 9 6 7 7 5 7 5 3
1 1 1 1 1 1 1 0 1 -0 -1 -1 0 0 1 1 4 6 3 1 1 1 5 5 6 6 8 8 7 9 12 11 9 9 10 8 9 9 8 9 8 6 4 3 4
0 0 0 0 1 1 1 1 1 0 -0 -1 -1 -0 0 1 6 8 1 2 1 2 3 3 5 7 8 8 8 8 11 9 9 8 8 8 9 9 8 10 8 8 6 5 5
0 0 -0 -0 0 1 1 1 1 0 -0 -1 -1 -1 -1 3 14 5 1 2 2 4 4 5 7 9 9 9 7 10 8 9 8 8 8 9 9 9 8 8 5 5 4 5 5
-1 0 -0 -0 -0 0 1 1 1 0 -0 -1 -1 -1 2 6 6 2 1 2 4 6 6 7 9 9 10 9 8 9 9 8 9 9 9 8 9 9 8 6 5 4 4 5 5
-0 -1 -1 -1 -1 -0 0 1 0 0 -0 -1 -1 -1 4 9 3 1 2 2 5 5 7 7 8 9 9 9 9 8 8 8 8 9 9 9 9 9 9 5 9 9 9 10 10
-1 -2 -1 -1 -1 -1 -0 1 0 0 -0 -0 -1 1 5 7 2 3 3 4 3 4 6 6 6 9 9 9 8 8 10 10 10 9 10 9 11 12 13 12 12 12 11 10 10
-2 -2 -1 -1 -1 -1 -1 -0 -0 -0 0 -0 -1 3 7 2 2 3 3 4 2 2 4 4 4 8 8 7 9 10 11 13 11 10 10 9 13 13 12 12 13 13 12 11 10
-2 -2 -1 -1 -1 -1 -1 -1 -1 -1 -1 -0 4 6 8 2 4 3 3 4 3 2 2 3 4 8 9 10 12 11 15 14 13 10 11 11 15 13 12 12 12 12 11 11 11
-2 -2 -1 -1 -1 -1 -1 -1 -1 -0 1 1 2 8 7 6 4 3 3 3 4 4 5 6 7 11 12 13 17 15 14 13 14 12 13 15 16 14 12 12 13 13 13 12 12
-2 -2 -1 -1 -1 -1 1 3 6 7 5 8 8 8 6 4 3 4 3 4 4 6 10 8 11 13 12 11 10 11 12 13 12 12 13 15 15 15 13 12 12 13 12 13 13
-2 -1 -1 -1 -1 -1 1 5 5 5 9 6 5 5 5 4 7 5 3 7 8 11 9 11 13 10 10 10 10 11 13 14 11 11 13 15 15 14 14 14 13 12 13 13 13
-2 -2 -2 -1 -1 1 3 3 1 3 9 7 5 6 6 5 8 7 4 6 9 11 11 12 11 8 9 11 11 12 13 13 13 11 11 12 14 15 15 14 14 13 13 13 13
-2 -2 -2 -1 2 3 4 1 1 3 17 11 8 6 5 5 9 5 4 6 9 11 10 11 9 10 10 11 10 14 10 11 12 14 17 11 19 14 15 16 15 15 15 14 13
-2 -2 -2 -0 4 5 3 1 2 6 25 11 8 3 4 7 7 7 4 6 10 11 10 12 11 11 12 11 9 12 9 11 12 14 14 15 17 15 14 16 16 15 14 14 14
-2 -2 -1 2 4 3 1 2 5 17 25 12 8 9 9 8 8 6 7 5 6 9 9 10 9 9 10 9 8 9 11 11 12 14 19 16 16 17 15 13 15 14 14 14 14
-2 -2 0 1 5 2 2 7 17 22 13 15 12 9 10 11 9 9 10 11 13 15 15 12 11 10 9 11 9 10 13 19 20 20 20 15 16 16 13 11 13 14 14 13 13
-1 -0 1 1 2 2 6 13 23 22 18 11 10 10 12 10 11 10 11 13 10 12 15 16 17 11 9 10 12 12 13 18 22 21 20 15 18 16 15 11 12 12 13 13 13
-0 4 4 3 2 3 9 21 20 18 10 11 11 12 13 11 11 11 12 12 10 10 15 15 16 11 10 9 10 13 15 12 16 18 19 17 18 16 15 14 14 13 13 14 14
4 5 5 2 3 7 13 15 16 9 9 9 15 12 15 13 13 13 13 10 11 9 8 12 17 12 12 9 9 11 10 16 16 21 22 19 19 18 17 16 15 14 14 14 14
6 9 4 3 5 11 18 20 10 9 8 10 14 13 12 13 12 13 13 10 9 10 8 10 13 14 12 13 14 13 14 14 14 16 19 21 18 15 15 15 15 14 14 14 14
8 14 4 4 13 23 19 11 9 10 8 8 9 10 12 11 12 13 13 11 8 8 12 10 13 16 15 13 11 11 13 13 17 19 17 17 18 15 13 13 14 14 13 13 13
12 10 5 6 17 21 19 13 10 11 11 10 11 10 10 11 14 12 11 8 7 9 11 10 14 17 16 13 12 14 12 12 13 14 17 18 18 15 13 14 14 14 14 13 13
11 16 12 11 12 14 18 19 17 10 10 10 10 10 11 12 10 12 11 9 8 8 7 8 12 15 19 16 14 15 13 13 13 18 17 17 18 17 15 15 15 14 13 13 14
13 16 13 18 15 14 13 17 19 17 11 10 11 12 12 13 13 13 11 10 8 8 9 10 20 15 15 14 14 14 13 13 14 14 16 16 17 17 15 14 14 14 14 14 14
13 14 12 12 11 12 12 13 14 14 12 13 13 12 11 14 13 13 12 11 12 9 10 10 15 16 16 14 13 14 13 13 12 14 15 15 16 14 14 14 14 13 13 13 13
11 10 11 13 11 13 13 12 11 10 10 10 12 13 12 12 11 11 11 11 11 12 12 12 13 16 17 17 17 17 16 14 13 14 14 16 14 14 15 13 13 13 12 12 13